Location: ???????
(55.4362°N, 38.1183°E)
Time: 01:39:51
(UTC+00:00)

Cosmos 1932 - Pass Details

Date: 31 October 2021
Orbit: 943 x 987 km, 65.0° (Epoch: 01 December)

Event Time Altitude Azimuth Distance (km) Brightness Sun altitude
Rises 14:53:35 0° 313° (NW) 3,620 8.0 -9.3°
Reaches altitude 10° 14:56:12 10° 308° (NW) 2,674 7.4 -9.7°
Maximum altitude 15:02:07 47° 237° (WSW) 1,240 5.6 -10.5°
Drops below altitude 10° 15:08:04 10° 165° (SSE) 2,681 6.8 -11.3°
Sets 15:10:42 0° 160° (SSE) 3,630 7.4 -11.7°
